Regional Weather Roundup
Issued by NWS

Home | Current Version | Previous Version | Graphics & Text | Print | Product List | Glossary On
Versions: 1 2 3 4 5 6 7 8 9 10 11 12 13 14 15 16 17 18 19 20 21 22 23 24 25 26 27 28 29 30 31 32 33 34 35 36 37 38 39 40 41 42 43 44 45 46 47 48 49 50
000
ASUS43 KTOP 241408
RWRKS

WEATHER ROUNDUP FOR KANSAS
NATIONAL WEATHER SERVICE GOODLAND KS
900 AM CDT SUN MAY 24 2015

NOTE:  "FAIR" INDICATES FEW OR NO CLOUDS BELOW 12,000 FEET WITH NO
SIGNIFICANT WEATHER AND/OR OBSTRUCTIONS TO VISIBILITY.

KSZ001>006-013>018-027>032-041>047-241500-
NORTHWEST KANSAS

CITY           SKY/WX    TMP DP  RH WIND       PRES   REMARKS
GOODLAND       CLOUDY    55  53  93 SE6       29.87F
HAYS           CLOUDY    57  52  82 SE9       29.88F VSB 1
HILL CITY      CLOUDY    59  57  93 E3        29.88F FOG
RUSSELL        CLOUDY    59  58  96 S9        29.87F
$$

KSZ061>065-074>080-084>089-241500-
SOUTHWEST KANSAS

CITY           SKY/WX    TMP DP  RH WIND       PRES   REMARKS
DODGE CITY     CLOUDY    58  56  93 SE5       29.89S
ELKHART          N/A     57  53  86 S3          N/A
GARDEN CITY    CLOUDY    57  57 100 SE10      29.86F
GREAT BEND     CLOUDY    57  55  94 CALM      29.90R VSB 3/4
LIBERAL        CLOUDY    61  55  82 S7        29.88S
PRATT          CLOUDY    59  59 100 S7        29.91S
$$

KSZ066>073-081>083-090>101-241500-
SOUTHEAST KANSAS

CITY           SKY/WX    TMP DP  RH WIND       PRES   REMARKS
CHANUTE        LGT RAIN  64  62  93 CALM      29.91S
COFFEYVILLE    LGT RAIN  63  61  93 CALM      29.90R
HUTCHINSON     CLOUDY    61  58  90 SE6       29.91R
MEDICINE LODGE   N/A     60  59  96 SE8       29.89F
NEWTON         CLOUDY    61  55  82 S6        29.92S
PARSONS        CLOUDY    64  63  96 SE5       29.93R
WICHITA INTL   CLOUDY    62  60  93 SE3       29.89F
WICHITA JABRA  CLOUDY    61  60  97 SE5       29.90F
WICHITA MCCONL CLOUDY    61  60  96 E6        29.90S
WINFIELD       CLOUDY    62  61  96 E5        29.90S
$$

KSZ007>012-019>026-033>040-048>060-102>105-241500-
NORTHEAST KANSAS

CITY           SKY/WX    TMP DP  RH WIND       PRES   REMARKS
CONCORDIA      CLOUDY    63  60  90 SW7       29.87S
EMPORIA        CLOUDY    63  60  90 CALM      29.88F
LAWRENCE       CLOUDY    66  62  87 S6        29.88F
MANHATTAN      CLOUDY    63  62  97 SW7       29.87F
MARYSVILLE     CLOUDY    63  63 100 W9        29.85F
OLATHE IND     CLOUDY    65  62  90 S8        29.89F
OLATHE EXE     CLOUDY    65  63  93 VRB6      29.89S
SALINA         CLOUDY    60  59  96 SE6       29.88F FOG
TOPEKA BILLARD PTSUNNY   66  62  87 SW6       29.87F
TOPEKA FORBES  CLOUDY    67  62  84 SW7       29.87F
$$


USA.gov is the U.S. government's official web portal to all federal, state and local government web resources and services.